EN

Hourly Weather Alter Hirschen

Today, 24 January, Sunday

Time Temperature Precipitation Wind Pressure Humidity
00:00 -1°C° 0.1 mm 1 mps 697 mmHg 86%
01:00 -1°C° 0.1 mm 1 mps 697 mmHg 88%
02:00 -3°C° 0.2 mm 2 mps 698 mmHg 89%
03:00 -3°C° 0.2 mm 2 mps 698 mmHg 90%
04:00 -2°C° 0.2 mm 3 mps 698 mmHg 91%
05:00 -2°C° 0.2 mm 2 mps 699 mmHg 93%
06:00 -2°C° 0.2 mm 2 mps 699 mmHg 94%
07:00 -1°C° 0.2 mm 1 mps 700 mmHg 96%
08:00 0°C° 0.2 mm 1 mps 700 mmHg 94%
09:00 0°C° 0.2 mm 1 mps 701 mmHg 92%
10:00 0°C° 0.2 mm 1 mps 701 mmHg 90%
11:00 +1°C° 0 mm 1 mps 701 mmHg 87%
12:00 +2°C° 0 mm 1 mps 701 mmHg 83%
13:00 +2°C° 0 mm 1 mps 700 mmHg 80%
14:00 +1°C° 0 mm 0 mps 700 mmHg 82%
15:00 +1°C° 0 mm 0 mps 700 mmHg 85%
16:00 +1°C° 0 mm 0 mps 700 mmHg 87%
17:00 0°C° 0 mm 0 mps 700 mmHg 87%
18:00 0°C° 0 mm 1 mps 700 mmHg 87%
19:00 -1°C° 0 mm 1 mps 700 mmHg 88%
20:00 -1°C° 0.1 mm 1 mps 700 mmHg 90%
21:00 -1°C° 0.1 mm 1 mps 700 mmHg 91%
22:00 -1°C° 0.1 mm 1 mps 700 mmHg 93%
23:00 -1°C° 0.3 mm 1 mps 700 mmHg 94%

Tomorrow, 25 January, Monday

Time Temperature Precipitation Wind Pressure Humidity
00:00 -3°C° 0.3 mm 2 mps 701 mmHg 95%
01:00 -3°C° 0.3 mm 2 mps 701 mmHg 95%
02:00 -3°C° 0.4 mm 2 mps 701 mmHg 95%
03:00 -3°C° 0.4 mm 2 mps 702 mmHg 95%
04:00 -3°C° 0.4 mm 2 mps 702 mmHg 95%
05:00 -4°C° 0.4 mm 3 mps 703 mmHg 94%
06:00 -4°C° 0.4 mm 3 mps 704 mmHg 94%
07:00 -4°C° 0.4 mm 4 mps 704 mmHg 93%
08:00 -4°C° 0.4 mm 4 mps 705 mmHg 93%
09:00 -4°C° 0.4 mm 4 mps 706 mmHg 93%
10:00 -4°C° 0.4 mm 4 mps 706 mmHg 92%
11:00 -3°C° 0.3 mm 4 mps 707 mmHg 89%
12:00 -3°C° 0.3 mm 4 mps 707 mmHg 86%
13:00 -2°C° 0.3 mm 5 mps 708 mmHg 82%
14:00 -2°C° 0.1 mm 4 mps 708 mmHg 83%
15:00 -2°C° 0.1 mm 4 mps 708 mmHg 84%
16:00 -2°C° 0.1 mm 3 mps 708 mmHg 85%
17:00 -2°C° 0.2 mm 3 mps 708 mmHg 87%
18:00 -3°C° 0.2 mm 4 mps 709 mmHg 89%
19:00 -4°C° 0.2 mm 4 mps 709 mmHg 91%
20:00 -4°C° 0.1 mm 4 mps 710 mmHg 90%
21:00 -4°C° 0.1 mm 4 mps 710 mmHg 88%
22:00 -4°C° 0.1 mm 4 mps 711 mmHg 87%
23:00 -4°C° 0.1 mm 3 mps 711 mmHg 88%

Day after tomorrow, 26 January, Tuesday

Time Temperature Precipitation Wind Pressure Humidity
00:00 -4°C° 0.1 mm 3 mps 711 mmHg 88%
01:00 -3°C° 0.1 mm 2 mps 711 mmHg 89%
02:00 -3°C° 0.1 mm 2 mps 711 mmHg 89%
03:00 -3°C° 0.1 mm 2 mps 712 mmHg 90%
04:00 -3°C° 0.1 mm 2 mps 712 mmHg 90%
05:00 -3°C° 0.2 mm 2 mps 712 mmHg 92%
06:00 -3°C° 0.2 mm 2 mps 712 mmHg 93%
07:00 -3°C° 0.2 mm 2 mps 712 mmHg 95%
08:00 -3°C° 0.1 mm 2 mps 712 mmHg 94%
09:00 -2°C° 0.1 mm 2 mps 713 mmHg 92%
10:00 -2°C° 0.1 mm 2 mps 713 mmHg 91%
11:00 -1°C° 0.1 mm 2 mps 713 mmHg 90%
12:00 0°C° 0.1 mm 3 mps 713 mmHg 89%
13:00 0°C° 0.1 mm 3 mps 713 mmHg 87%
14:00 +1°C° 0 mm 2 mps 713 mmHg 89%
15:00 +2°C° 0 mm 1 mps 712 mmHg 90%
16:00 +2°C° 0 mm 1 mps 712 mmHg 91%
17:00 +1°C° 0 mm 1 mps 712 mmHg 90%
18:00 +1°C° 0 mm 1 mps 712 mmHg 90%
19:00 0°C° 0 mm 1 mps 713 mmHg 90%
20:00 0°C° 0 mm 1 mps 712 mmHg 90%
21:00 0°C° 0 mm 1 mps 712 mmHg 90%
22:00 0°C° 0 mm 1 mps 712 mmHg 90%
23:00 +1°C° 0.2 mm 1 mps 712 mmHg 91%

27 January, Wednesday

Time Temperature Precipitation Wind Pressure Humidity
00:00 +1°C° 0.2 mm 1 mps 711 mmHg 93%
01:00 -1°C° 0.2 mm 2 mps 711 mmHg 94%
02:00 -1°C° 0.1 mm 2 mps 710 mmHg 94%
03:00 +1°C° 0.1 mm 2 mps 710 mmHg 94%
04:00 +1°C° 0.1 mm 3 mps 709 mmHg 94%
05:00 +1°C° 0.5 mm 3 mps 710 mmHg 95%
06:00 +1°C° 0.5 mm 4 mps 710 mmHg 96%
07:00 +1°C° 0.5 mm 4 mps 710 mmHg 97%
08:00 +1°C° 0.7 mm 4 mps 710 mmHg 97%
09:00 +1°C° 0.7 mm 4 mps 711 mmHg 97%
10:00 +1°C° 0.7 mm 4 mps 712 mmHg 97%
11:00 +3°C° 0.4 mm 4 mps 712 mmHg 96%
12:00 +3°C° 0.4 mm 3 mps 712 mmHg 95%
13:00 +3°C° 0.4 mm 3 mps 713 mmHg 93%
14:00 +3°C° 0.3 mm 3 mps 713 mmHg 93%
15:00 +3°C° 0.3 mm 3 mps 713 mmHg 94%
16:00 +4°C° 0.3 mm 2 mps 713 mmHg 94%
17:00 +3°C° 0.1 mm 2 mps 714 mmHg 93%
18:00 +2°C° 0.1 mm 2 mps 714 mmHg 93%
19:00 +2°C° 0.1 mm 2 mps 715 mmHg 92%
20:00 +1°C° 0 mm 2 mps 715 mmHg 90%
21:00 +1°C° 0 mm 2 mps 715 mmHg 87%
22:00 +1°C° 0 mm 2 mps 715 mmHg 85%
23:00 -1°C° 0 mm 2 mps 715 mmHg 82%

28 January, Thursday

Time Temperature Precipitation Wind Pressure Humidity
00:00 -1°C° 0 mm 2 mps 714 mmHg 80%
01:00 -1°C° 0 mm 2 mps 713 mmHg 77%
02:00 +1°C° 0 mm 1 mps 713 mmHg 77%
03:00 +2°C° 0 mm 1 mps 713 mmHg 77%
04:00 +2°C° 0 mm 1 mps 712 mmHg 76%
05:00 +3°C° 0.2 mm 1 mps 712 mmHg 80%
06:00 +2°C° 0.2 mm 2 mps 712 mmHg 84%
07:00 +2°C° 0.2 mm 2 mps 712 mmHg 87%
08:00 +3°C° 0.3 mm 2 mps 711 mmHg 89%
09:00 +4°C° 0.3 mm 2 mps 711 mmHg 92%
10:00 +4°C° 0.3 mm 2 mps 711 mmHg 94%
11:00 +5°C° 0 mm 2 mps 711 mmHg 93%
12:00 +5°C° 0 mm 3 mps 710 mmHg 92%
13:00 +7°C° 0 mm 3 mps 710 mmHg 91%
14:00 +7°C° 0.2 mm 3 mps 710 mmHg 91%
15:00 +5°C° 0.2 mm 3 mps 709 mmHg 91%
16:00 +5°C° 0.2 mm 3 mps 709 mmHg 91%
17:00 +4°C° 1.3 mm 4 mps 709 mmHg 92%
18:00 +4°C° 1.3 mm 4 mps 710 mmHg 93%
19:00 +3°C° 1.3 mm 4 mps 710 mmHg 94%

29 January, Friday

Time Temperature Precipitation Wind Pressure Humidity
Show more